| time (UTC) | temp C | wind direction | speed KPH | gust KPH | rain 1hr cm | rain 24hr cm | rain mn cm | humidity % | barometer mb |
| 20260831071608 | 20 | 238 | 3.2 | 6.4 | 0.00 | 0.00 | 0.00 | 87 | 1013.3 |
| 20260831070106 | 20 | 242 | 3.2 | 6.4 | 0.00 | 0.00 | 0.00 | 86 | 1013.2 |
| 20260831064604 | 20 | 242 | 1.6 | 4.8 | 0.00 | 0.00 | 0.00 | 86 | 1013.3 |
| 20260831063112 | 21 | 242 | 1.6 | 4.8 | 0.00 | 0.00 | 0.00 | 86 | 1013.1 |
| 20260831061557 | 21 | 242 | 1.6 | 3.2 | 0.00 | 0.00 | 0.00 | 86 | 1013.0 |
| 20260831060105 | 21 | 0 | 1.6 | 4.8 | 0.00 | 0.00 | 0.00 | 86 | 1013.1 |
| 20260831054601 | 21 | 244 | 1.6 | 4.8 | 0.00 | 0.00 | 0.00 | 85 | 1013.1 |
| 20260831053124 | 21 | 244 | 1.6 | 4.8 | 0.00 | 0.00 | 0.00 | 86 | 1013.2 |
| 20260831051554 | 21 | 246 | 0.0 | 3.2 | 0.00 | 0.00 | 0.00 | 85 | 1013.1 |
| 20260831050117 | 21 | 0 | 0.0 | 1.6 | 0.00 | 0.00 | 0.00 | 84 | 1013.1 |
| 20260831044600 | 21 | 246 | 0.0 | 3.2 | 0.00 | 0.00 | 0.00 | 84 | 1013.0 |
| 20260831043056 | 21 | 246 | 0.0 | 4.8 | 0.00 | 0.00 | 0.00 | 84 | 1012.9 |
| 20260831041620 | 21 | 245 | 1.6 | 6.4 | 0.00 | 0.00 | 0.00 | 83 | 1012.8 |
| 20260831034559 | 22 | 244 | 3.2 | 11.3 | 0.00 | 0.00 | 0.00 | 83 | 1012.5 |
| 20260831033113 | 22 | 236 | 1.6 | 8.0 | 0.00 | 0.00 | 0.00 | 83 | 1012.4 |
| 20260831031558 | 22 | 234 | 4.8 | 11.3 | 0.00 | 0.00 | 0.00 | 82 | 1012.1 |
| 20260831024606 | 22 | 223 | 3.2 | 9.7 | 0.00 | 0.00 | 0.00 | 82 | 1012.1 |
| 20260831023059 | 22 | 230 | 3.2 | 6.4 | 0.00 | 0.00 | 0.00 | 81 | 1011.9 |
| 20260831021558 | 23 | 264 | 1.6 | 8.0 | 0.00 | 0.00 | 0.00 | 81 | 1011.7 |
| 20260831020056 | 23 | 233 | 3.2 | 11.3 | 0.00 | 0.00 | 0.00 | 80 | 1011.6 |
| 20260831014604 | 23 | 244 | 1.6 | 12.9 | 0.00 | 0.00 | 0.00 | 81 | 1011.6 |
| 20260831013059 | 23 | 246 | 3.2 | 12.9 | 0.00 | 0.00 | 0.00 | 80 | 1011.5 |
| 20260831011558 | 24 | 247 | 6.4 | 14.5 | 0.00 | 0.00 | 0.00 | 78 | 1011.6 |
| 20260831010113 | 25 | 241 | 4.8 | 16.1 | 0.00 | 0.00 | 0.00 | 75 | 1011.7 |
| 20260831004606 | 25 | 237 | 4.8 | 16.1 | 0.00 | 0.00 | 0.00 | 74 | 1011.6 |
| 20260831003107 | 25 | 360 | 6.4 | 14.5 | 0.00 | 0.00 | 0.00 | 74 | 1011.8 |
| 20260831001604 | 25 | 360 | 8.0 | 17.7 | 0.00 | 0.00 | 0.00 | 74 | 1011.8 |
| 20260830234606 | 25 | 220 | 6.4 | 20.9 | 0.00 | 0.00 | 0.00 | 72 | 1011.7 |
| 20260830233104 | 26 | 252 | 9.7 | 17.7 | 0.00 | 0.00 | 0.00 | 71 | 1011.8 |
| 20260830231611 | 26 | 360 | 8.0 | 16.1 | 0.00 | 0.00 | 0.00 | 71 | 1011.9 |
| 20260830230058 | 26 | 253 | 6.4 | 17.7 | 0.00 | 0.00 | 0.00 | 72 | 1011.8 |
| 20260830224607 | 26 | 228 | 6.4 | 16.1 | 0.00 | 0.00 | 0.00 | 70 | 1012.0 |
| 20260830223107 | 26 | 244 | 9.7 | 20.9 | 0.00 | 0.00 | 0.00 | 72 | 1012.2 |
| 20260830221601 | 26 | 261 | 8.0 | 19.3 | 0.00 | 0.00 | 0.00 | 70 | 1012.5 |
| 20260830220100 | 26 | 237 | 11.3 | 16.1 | 0.00 | 0.00 | 0.00 | 71 | 1012.5 |
| 20260830214603 | 26 | 233 | 9.7 | 20.9 | 0.00 | 0.00 | 0.00 | 70 | 1012.4 |
| 20260830213101 | 26 | 274 | 6.4 | 22.5 | 0.00 | 0.00 | 0.00 | 70 | 1012.7 |
| 20260830211558 | 26 | 360 | 8.0 | 19.3 | 0.00 | 0.00 | 0.00 | 70 | 1012.7 |
| 20260830210119 | 26 | 360 | 9.7 | 22.5 | 0.00 | 0.00 | 0.00 | 71 | 1012.9 |
| 20260830204611 | 26 | 360 | 9.7 | 20.9 | 0.00 | 0.00 | 0.00 | 71 | 1013.1 |
| 20260830203059 | 26 | 360 | 9.7 | 20.9 | 0.00 | 0.00 | 0.00 | 72 | 1013.1 |
| 20260830201559 | 26 | 360 | 9.7 | 17.7 | 0.00 | 0.00 | 0.00 | 71 | 1013.1 |
| 20260830200112 | 26 | 360 | 9.7 | 22.5 | 0.00 | 0.00 | 0.00 | 71 | 1013.1 |
| 20260830194645 | 26 | 249 | 8.0 | 24.1 | 0.00 | 0.00 | 0.00 | 70 | 1013.2 |
| 20260830193102 | 26 | 275 | 8.0 | 19.3 | 0.00 | 0.00 | 0.00 | 70 | 1013.4 |
| 20260830191602 | 27 | 360 | 8.0 | 17.7 | 0.00 | 0.00 | 0.00 | 69 | 1013.5 |
| 20260830184556 | 26 | 360 | 9.7 | 20.9 | 0.00 | 0.00 | 0.00 | 69 | 1013.6 |
| 20260830183114 | 27 | 203 | 8.0 | 16.1 | 0.00 | 0.00 | 0.00 | 69 | 1013.6 |
| 20260830181602 | 27 | 360 | 8.0 | 14.5 | 0.00 | 0.00 | 0.00 | 68 | 1013.4 |
| 20260830180108 | 27 | 244 | 4.8 | 16.1 | 0.00 | 0.00 | 0.00 | 68 | 1013.5 |
| 20260830174558 | 26 | 223 | 8.0 | 17.7 | 0.00 | 0.00 | 0.00 | 72 | 1013.4 |
| 20260830173111 | 26 | 211 | 8.0 | 16.1 | 0.00 | 0.00 | 0.00 | 69 | 1013.3 |
| 20260830171603 | 26 | 205 | 4.8 | 16.1 | 0.00 | 0.00 | 0.00 | 71 | 1013.2 |
| 20260830170101 | 26 | 360 | 4.8 | 16.1 | 0.00 | 0.00 | 0.00 | 70 | 1013.1 |
| 20260830164608 | 26 | 240 | 6.4 | 16.1 | 0.00 | 0.00 | 0.00 | 71 | 1013.2 |
| 20260830163104 | 28 | 144 | 1.6 | 12.9 | 0.00 | 0.00 | 0.00 | 64 | 1013.1 |
| 20260830161626 | 27 | 128 | 6.4 | 16.1 | 0.00 | 0.00 | 0.00 | 67 | 1013.1 |
| 20260830160103 | 27 | 133 | 8.0 | 12.9 | 0.00 | 0.00 | 0.00 | 69 | 1013.1 |
| 20260830154610 | 27 | 164 | 8.0 | 11.3 | 0.00 | 0.00 | 0.00 | 69 | 1013.0 |
| 20260830153105 | 26 | 132 | 3.2 | 14.5 | 0.00 | 0.00 | 0.00 | 70 | 1012.9 |
| 20260830151602 | 25 | 117 | 8.0 | 14.5 | 0.00 | 0.00 | 0.00 | 74 | 1013.0 |
| 20260830150120 | 24 | 163 | 4.8 | 11.3 | 0.00 | 0.00 | 0.00 | 78 | 1013.0 |
| 20260830144556 | 23 | 138 | 4.8 | 12.9 | 0.00 | 0.00 | 0.00 | 80 | 1013.0 |
| 20260830143104 | 23 | 114 | 3.2 | 9.7 | 0.00 | 0.00 | 0.00 | 82 | 1012.9 |
| 20260830141603 | 22 | 120 | 3.2 | 8.0 | 0.00 | 0.00 | 0.00 | 84 | 1012.8 |
| 20260830140104 | 22 | 144 | 4.8 | 9.7 | 0.00 | 0.00 | 0.00 | 85 | 1012.8 |
| 20260830134601 | 22 | 151 | 1.6 | 9.7 | 0.00 | 0.00 | 0.00 | 85 | 1012.6 |
| 20260830133058 | 22 | 155 | 3.2 | 8.0 | 0.00 | 0.00 | 0.00 | 85 | 1012.5 |
| 20260830131607 | 22 | 131 | 1.6 | 11.3 | 0.00 | 0.00 | 0.00 | 85 | 1012.4 |
| 20260830124600 | 22 | 138 | 4.8 | 16.1 | 0.00 | 0.00 | 0.00 | 86 | 1012.1 |
| 20260830123058 | 22 | 137 | 8.0 | 14.5 | 0.00 | 0.00 | 0.00 | 87 | 1012.1 |
| 20260830121600 | 22 | 138 | 6.4 | 14.5 | 0.00 | 0.00 | 0.00 | 87 | 1012.1 |
| 20260830120059 | 22 | 111 | 11.3 | 16.1 | 0.00 | 0.00 | 0.00 | 87 | 1012.1 |
| 20260830114604 | 22 | 145 | 8.0 | 16.1 | 0.00 | 0.00 | 0.00 | 88 | 1012.1 |
| 20260830113103 | 22 | 142 | 4.8 | 9.7 | 0.00 | 0.00 | 0.00 | 88 | 1012.1 |
| 20260830111556 | 22 | 138 | 3.2 | 6.4 | 0.00 | 0.00 | 0.00 | 89 | 1012.1 |
| 20260830110101 | 22 | 107 | 0.0 | 9.7 | 0.00 | 0.00 | 0.00 | 89 | 1012.1 |
| 20260830104604 | 22 | 132 | 0.0 | 4.8 | 0.00 | 0.00 | 0.00 | 89 | 1012.1 |
| 20260830103102 | 22 | 134 | 4.8 | 8.0 | 0.00 | 0.00 | 0.00 | 89 | 1011.9 |
| 20260830101559 | 22 | 132 | 3.2 | 6.4 | 0.00 | 0.00 | 0.00 | 89 | 1011.8 |
| 20260830100104 | 22 | 144 | 3.2 | 8.0 | 0.00 | 0.00 | 0.00 | 89 | 1011.8 |
| 20260830094604 | 22 | 140 | 3.2 | 6.4 | 0.00 | 0.00 | 0.00 | 89 | 1011.7 |
| 20260830093057 | 22 | 146 | 3.2 | 8.0 | 0.00 | 0.00 | 0.00 | 89 | 1011.8 |
| 20260830091606 | 22 | 147 | 3.2 | 8.0 | 0.00 | 0.00 | 0.00 | 89 | 1011.9 |
| 20260830084559 | 22 | 191 | 1.6 | 4.8 | 0.00 | 0.00 | 0.00 | 89 | 1011.8 |
| 20260830083107 | 22 | 192 | 1.6 | 4.8 | 0.00 | 0.00 | 0.00 | 89 | 1011.8 |
| 20260830081602 | 22 | 195 | 1.6 | 4.8 | 0.00 | 0.00 | 0.00 | 89 | 1011.8 |
| 20260830080100 | 22 | 196 | 1.6 | 4.8 | 0.00 | 0.00 | 0.00 | 89 | 1012.0 |
| 20260830074608 | 22 | 197 | 1.6 | 4.8 | 0.00 | 0.00 | 0.00 | 89 | 1012.0 |
| 20260830073116 | 22 | 207 | 0.0 | 0.0 | 0.00 | 0.00 | 0.00 | 88 | 1012.0 |